Home   Weather   Toulon   Past weeks

Flag for France Past Weather in Toulon, Provence-Alpes-Côte d'Azur, France — Yesterday and Last 2 Weeks

Now
70 °F

Clear.


Feels Like: 70 °F
Forecast: 61 / 87 °F
Wind: 3 mph from North

Location: Hyeres Airport

Current Time: Sep 1, 2016 at 3:59:58 AM

Latest Report: Sep 1, 2016 at 3:30 AM


Visibility: 10 mi

Pressure: 30.09 "Hg

Humidity: 78%

Dew Point: 63 °F

Location of ToulonLocation

Past Weather in Toulon — Graph

°F

Toulon Temperature Yesterday

Maximum temperature yesterday: 84 °F (at 11:30 AM)
Minimum temperature yesterday: 66 °F (at 5:30 AM)
Average temperature yesterday: 76 °F

High & Low Weather Summary for the Past Weeks

 TemperatureHumidityPressure
High93 °F (Aug 29, 5:30 PM)94% (Aug 17, 5:00 AM)30.24 "Hg (Aug 17, 5:00 AM)
Low61 °F (Aug 28, 5:30 AM)16% (Aug 21, 3:00 PM)29.80 "Hg (Aug 17, 5:00 PM)
Average76 °F64%30.02 "Hg
* Reported Aug 17 2:00 AM — Sep 1 2:30 AM, Toulon, Weather by CustomWeather, © 2016

Note: Actual official high and low records may vary slightly from our data, if they occured in-between our weather recording intervals... More about our weather records

Advertising

Toulon Weather History for the Previous 24 Hours

Scroll right to see more
 ConditionsComfort  
Time TempWeatherWind HumidityBarometerVisibility
2:30 AM
Thu, Sep 1
68 °FClear.2 mph83%30.09 "Hg10 mi
2:00 AM70 °FClear.2 mph78%30.09 "Hg10 mi
1:30 AM72 °FClear.2 mph73%30.09 "Hg10 mi
1:00 AM72 °FClear.3 mph73%30.09 "Hg10 mi
12:30 AM73 °FClear.3 mph69%30.09 "Hg10 mi
12:00 AM73 °FClear.5 mph69%30.09 "Hg10 mi
11:30 PM
Wed, Aug 31
73 °FClear.3 mph69%30.09 "Hg10 mi
11:00 PM73 °FClear.2 mph69%30.09 "Hg10 mi
10:30 PM75 °FPassing clouds.3 mph65%30.09 "HgN/A
10:00 PM75 °FPassing clouds.6 mph65%30.09 "HgN/A
9:30 PM75 °FPassing clouds.5 mph65%30.09 "HgN/A
9:00 PM75 °FSunny.3 mph65%30.09 "Hg10 mi
8:30 PM77 °FSunny.3 mph61%30.09 "Hg10 mi
8:00 PM79 °FSunny.2 mph58%30.07 "Hg10 mi
7:30 PM79 °FPassing clouds.8 mph61%30.07 "HgN/A
7:00 PM81 °FWarm.7 mph58%30.07 "HgN/A
6:30 PM81 °FWarm.8 mph58%30.07 "HgN/A
6:00 PM82 °FWarm.12 mph51%30.07 "HgN/A
5:30 PM82 °FWarm.10 mph48%30.07 "HgN/A
5:00 PM82 °FWarm.12 mph48%30.07 "HgN/A
4:30 PM82 °FSunny.12 mph51%30.07 "Hg10 mi
4:00 PM81 °FBroken clouds.12 mph51%30.07 "HgN/A
3:30 PM82 °FWarm.12 mph51%30.09 "HgN/A
3:00 PM84 °FWarm.13 mph45%30.09 "HgN/A
2:30 PM84 °FSunny.10 mph48%30.09 "Hg10 mi
2:00 PM82 °FPassing clouds.12 mph51%30.09 "HgN/A
1:30 PM84 °FPassing clouds.9 mph48%30.09 "HgN/A
1:00 PM84 °FPassing clouds.10 mph45%30.09 "HgN/A
12:30 PM84 °FPassing clouds.9 mph45%30.09 "HgN/A
12:00 PM84 °FPassing clouds.6 mph45%30.09 "HgN/A
11:30 AM84 °FSunny.3 mph45%30.09 "Hg10 mi
11:00 AM82 °FPassing clouds.5 mph48%30.09 "HgN/A
10:30 AM81 °FPassing clouds.5 mph51%30.09 "HgN/A
10:00 AM81 °FPassing clouds.5 mph51%30.09 "HgN/A
9:30 AM79 °FSunny.3 mph58%30.09 "Hg10 mi
9:00 AM75 °FSunny.6 mph61%30.09 "Hg10 mi
8:30 AM73 °FSunny.6 mph65%30.07 "Hg10 mi
8:00 AM72 °FSunny.7 mph73%30.07 "Hg10 mi
7:30 AM68 °FClear.7 mph78%30.07 "Hg10 mi
7:00 AM68 °FClear.7 mph78%30.07 "Hg10 mi
6:30 AM68 °FClear.7 mph78%30.07 "Hg10 mi
6:00 AM68 °FClear.6 mph78%30.07 "Hg10 mi
5:30 AM66 °FClear.3 mph78%30.07 "Hg10 mi
5:00 AM68 °FClear.6 mph78%30.07 "Hg10 mi
4:30 AM68 °FClear.8 mph78%30.07 "Hg10 mi
4:00 AM68 °FClear.6 mph78%30.07 "Hg10 mi
3:30 AM68 °FClear.6 mph78%30.07 "Hg10 mi
3:00 AM70 °FClear.7 mph73%30.07 "Hg10 mi
Weather by CustomWeather, © 2016

See weather overviewHow to use our weather pages